Grafton, ND

5:56 PM CDT on June 26, 2017 (GMT -0500)
Grafton Municipal

Weather History for KGAF - March, 2014

Change the Weather History Date:

Tuesday, March 25, 2014

  Actual Average Record
Temperature  
Mean Temperature 14 °F -  
Max Temperature 23 °F 39 °F 64 °F (1968)
Min Temperature 5 °F 23 °F -12 °F (1955)
Degree Days  
Heating Degree Days 51    
Moisture  
Dew Point 3 °F    
Average Humidity 65    
Maximum Humidity 85    
Minimum Humidity 43    
Precipitation  
Precipitation 0.00 in - - ()
Sea Level Pressure  
Sea Level Pressure 30.20 in    
Wind  
Wind Speed 11 mph (WNW)    
Max Wind Speed 18 mph    
Max Gust Speed 23 mph    
Visibility 10 miles    
Events      
Averages and records for this station are not official NWS values.
T = Trace of Precipitation, MM = Missing Value Source: NWS Daily Summary

Daily Weather History Graph

Daily Weather History Graph

Search for Another Location

Airport or City:

Trip Planner

Search our weather history database for the weather conditions in past years. The results will help you decide how hot, cold, wet, or windy it might be!

Date:

Astronomy

Mar. 25, 2014 Rise Set
Actual Time 7:21 AM CDT 7:49 PM CDT
Civil Twilight 6:50 AM CDT 8:21 PM CDT
Nautical Twilight 6:13 AM CDT 8:58 PM CDT
Astronomical Twilight 5:34 AM CDT 9:37 PM CDT
Moon 4:08 AM CDT (3/25) 1:59 PM CDT (3/25)
Length of Visible Light 13h 30m
Length of Day
12h 27m
Waning Crescent, 32% of the Moon is Illuminated
Mar 25
Waning Crescent
Mar 30
New
Apr 7
First Quarter
Apr 15
Full
Apr 22
Last Quarter

Hourly Weather History & Observations

Time (CDT) Temp. Windchill Dew Point Humidity Pressure Visibility Wind Dir Wind Speed Gust Speed Precip Events Conditions
12:15 AM 10.4 °F -5.4 °F 1.4 °F 67% 30.27 in 10.0 mi NW 13.8 mph - N/A   Clear
12:35 AM 10.4 °F -4.1 °F 1.4 °F 67% 30.28 in 10.0 mi NW 11.5 mph - N/A   Clear
12:55 AM 10.4 °F -5.4 °F 1.4 °F 67% 30.27 in 10.0 mi NW 13.8 mph 17.3 mph N/A   Clear
1:15 AM 8.6 °F -7.7 °F 1.4 °F 73% 30.28 in 10.0 mi NW 13.8 mph - N/A   Clear
1:35 AM 8.6 °F -7.0 °F 1.4 °F 73% 30.27 in 10.0 mi NW 12.7 mph - N/A   Clear
1:55 AM 8.6 °F -6.3 °F 1.4 °F 73% 30.28 in 10.0 mi NW 11.5 mph - N/A   Clear
2:15 AM 8.6 °F -7.0 °F 1.4 °F 73% 30.28 in 10.0 mi NW 12.7 mph - N/A   Clear
2:35 AM 8.6 °F -6.3 °F -0.4 °F 67% 30.28 in 10.0 mi NW 11.5 mph - N/A   Clear
2:55 AM 8.6 °F -7.7 °F -0.4 °F 67% 30.28 in 10.0 mi NW 13.8 mph - N/A   Clear
3:15 AM 6.8 °F -7.8 °F -0.4 °F 72% 30.28 in 10.0 mi WNW 10.4 mph - N/A   Clear
3:35 AM 6.8 °F -10.0 °F -0.4 °F 72% 30.28 in 10.0 mi WNW 13.8 mph - N/A   Clear
3:55 AM 6.8 °F -10.0 °F -0.4 °F 72% 30.28 in 10.0 mi NW 13.8 mph - N/A   Clear
4:15 AM 6.8 °F -7.8 °F -0.4 °F 72% 30.28 in 10.0 mi WNW 10.4 mph - N/A   Clear
4:35 AM 6.8 °F -8.6 °F -0.4 °F 72% 30.28 in 10.0 mi WNW 11.5 mph - N/A   Clear
4:55 AM 5.0 °F -11.6 °F -0.4 °F 78% 30.28 in 10.0 mi WNW 12.7 mph - N/A   Clear
5:15 AM 6.8 °F -10.0 °F -0.4 °F 72% 30.28 in 10.0 mi WNW 13.8 mph - N/A   Clear
5:35 AM 6.8 °F -8.6 °F -0.4 °F 72% 30.28 in 10.0 mi WNW 11.5 mph - N/A   Clear
5:55 AM 5.0 °F -10.8 °F -0.4 °F 78% 30.27 in 10.0 mi WNW 11.5 mph - N/A   Clear
6:15 AM 5.0 °F -10.0 °F -0.4 °F 78% 30.27 in 10.0 mi WNW 10.4 mph - N/A   Clear
6:35 AM 5.0 °F -10.8 °F -0.4 °F 78% 30.28 in 10.0 mi West 11.5 mph - N/A   Clear
6:55 AM 5.0 °F -10.8 °F -0.4 °F 78% 30.28 in 10.0 mi WNW 11.5 mph - N/A   Clear
7:15 AM 5.0 °F -12.3 °F -0.4 °F 78% 30.28 in 10.0 mi WNW 13.8 mph - N/A   Clear
7:35 AM 5.0 °F -10.8 °F -0.4 °F 78% 30.27 in 10.0 mi WNW 11.5 mph - N/A   Clear
7:55 AM 5.0 °F -10.8 °F -0.4 °F 78% 30.27 in 10.0 mi WNW 11.5 mph - N/A   Clear
8:15 AM 5.0 °F -11.6 °F -0.4 °F 78% 30.27 in 10.0 mi WNW 12.7 mph - N/A   Clear
8:35 AM 6.8 °F -9.3 °F -0.4 °F 72% 30.28 in 10.0 mi West 12.7 mph - N/A   Clear
8:55 AM 6.8 °F -10.0 °F -0.4 °F 72% 30.28 in 10.0 mi WNW 13.8 mph - N/A   Clear
9:15 AM 8.6 °F -6.3 °F -0.4 °F 67% 30.28 in 10.0 mi WNW 11.5 mph - N/A   Clear
9:35 AM 8.6 °F -8.3 °F 1.4 °F 73% 30.27 in 10.0 mi WNW 15.0 mph - N/A   Clear
9:55 AM 10.4 °F -3.3 °F 1.4 °F 67% 30.27 in 10.0 mi WNW 10.4 mph - N/A   Clear
10:15 AM 12.2 °F -1.0 °F 3.2 °F 67% 30.27 in 10.0 mi West 10.4 mph - N/A   Clear
10:35 AM 14.0 °F 1.2 °F 3.2 °F 62% 30.27 in 10.0 mi West 10.4 mph - N/A   Clear
10:55 AM 14.0 °F 1.2 °F 5.0 °F 67% 30.27 in 10.0 mi WNW 10.4 mph - N/A   Clear
11:15 AM 15.8 °F 4.2 °F 5.0 °F 62% 30.28 in 10.0 mi West 9.2 mph - N/A   Clear
11:35 AM 15.8 °F 5.1 °F 1.4 °F 53% 30.27 in 10.0 mi WNW 8.1 mph - N/A   Clear
11:55 AM 17.6 °F 5.7 °F 3.2 °F 53% 30.26 in 10.0 mi WNW 10.4 mph - N/A   Clear
12:15 PM 17.6 °F 8.2 °F 3.2 °F 53% 30.26 in 10.0 mi West 6.9 mph - N/A   Clear
12:35 PM 17.6 °F 5.0 °F 3.2 °F 53% 30.25 in 10.0 mi WNW 11.5 mph 19.6 mph N/A   Clear
12:55 PM 17.6 °F 4.3 °F 1.4 °F 49% 30.24 in 10.0 mi NW 12.7 mph - N/A   Clear
1:15 PM 19.4 °F 4.1 °F 5.0 °F 54% 30.23 in 10.0 mi NW 18.4 mph 23.0 mph N/A   Clear
1:35 PM 19.4 °F 6.0 °F 3.2 °F 49% 30.22 in 10.0 mi WNW 13.8 mph 20.7 mph N/A   Clear
1:55 PM 19.4 °F 6.0 °F 5.0 °F 54% 30.21 in 10.0 mi NW 13.8 mph 19.6 mph N/A   Partly Cloudy
2:15 PM 19.4 °F 6.6 °F 5.0 °F 54% 30.21 in 10.0 mi WNW 12.7 mph 19.6 mph N/A   Clear
2:35 PM 21.2 °F 9.5 °F 3.2 °F 46% 30.20 in 10.0 mi WNW 11.5 mph - N/A   Clear
2:55 PM 21.2 °F 8.3 °F 5.0 °F 50% 30.19 in 10.0 mi NW 13.8 mph - N/A   Clear
3:15 PM 21.2 °F 10.1 °F 5.0 °F 50% 30.18 in 10.0 mi NNW 10.4 mph 16.1 mph N/A   Clear
3:35 PM 21.2 °F 10.1 °F 5.0 °F 50% 30.17 in 10.0 mi NNW 10.4 mph 16.1 mph N/A   Clear
3:55 PM 21.2 °F 9.5 °F 3.2 °F 46% 30.17 in 10.0 mi NNW 11.5 mph - N/A   Clear
4:15 PM 23.0 °F 13.1 °F 5.0 °F 46% 30.16 in 10.0 mi NNW 9.2 mph - N/A   Clear
4:35 PM 23.0 °F 11.7 °F 5.0 °F 46% 30.16 in 10.0 mi NW 11.5 mph - N/A   Clear
4:55 PM 23.0 °F 15.8 °F 5.0 °F 46% 30.15 in 10.0 mi WNW 5.8 mph - N/A   Clear
5:15 PM 23.0 °F 13.1 °F 5.0 °F 46% 30.14 in 10.0 mi NW 9.2 mph - N/A   Clear
5:35 PM 23.0 °F 13.1 °F 5.0 °F 46% 30.14 in 10.0 mi NW 9.2 mph - N/A   Clear
5:55 PM 23.0 °F 13.1 °F 5.0 °F 46% 30.13 in 10.0 mi NNW 9.2 mph - N/A   Clear
6:15 PM 23.0 °F 13.1 °F 3.2 °F 43% 30.13 in 10.0 mi WNW 9.2 mph - N/A   Clear
6:35 PM 23.0 °F 12.4 °F 5.0 °F 46% 30.12 in 10.0 mi NW 10.4 mph - N/A   Clear
6:55 PM 23.0 °F 14.7 °F 5.0 °F 46% 30.11 in 10.0 mi NW 6.9 mph - N/A   Clear
7:15 PM 21.2 °F 12.6 °F 5.0 °F 50% 30.10 in 10.0 mi North 6.9 mph - N/A   Clear
7:35 PM 19.4 °F 12.8 °F 6.8 °F 58% 30.09 in 10.0 mi NNW 4.6 mph - N/A   Clear
7:55 PM 19.4 °F 14.3 °F 6.8 °F 58% 30.08 in 10.0 mi NNW 3.5 mph - N/A   Clear
8:15 PM 19.4 °F - 6.8 °F 58% 30.08 in 10.0 mi Calm Calm - N/A   Clear
8:35 PM 19.4 °F - 5.0 °F 54% 30.07 in 10.0 mi Calm Calm - N/A   Clear
8:55 PM 17.6 °F - 10.4 °F 73% 30.07 in 10.0 mi Calm Calm - N/A   Clear
9:15 PM 17.6 °F 12.3 °F 10.4 °F 73% 30.06 in 10.0 mi SSE 3.5 mph - N/A   Clear
9:35 PM 15.8 °F 6.1 °F 10.4 °F 79% 30.06 in 10.0 mi SSE 6.9 mph - N/A   Clear
9:55 PM 14.0 °F 3.9 °F 8.6 °F 79% 30.06 in 10.0 mi South 6.9 mph - N/A   Clear
10:15 PM 14.0 °F 2.9 °F 8.6 °F 79% 30.05 in 10.0 mi South 8.1 mph - N/A   Clear
10:35 PM 12.2 °F 2.9 °F 8.6 °F 85% 30.05 in 10.0 mi SSE 5.8 mph - N/A   Clear
10:55 PM 12.2 °F 1.7 °F 8.6 °F 85% 30.04 in 10.0 mi SSE 6.9 mph - N/A   Clear
11:15 PM 12.2 °F 2.9 °F 6.8 °F 79% 30.03 in 10.0 mi SSE 5.8 mph - N/A   Clear
11:35 PM 10.4 °F 0.8 °F 6.8 °F 85% 30.03 in 10.0 mi South 5.8 mph - N/A   Clear
11:55 PM 10.4 °F -1.5 °F 6.8 °F 85% 30.03 in 10.0 mi SSE 8.1 mph - N/A   Clear